www.pogodaiklimat.ru

Погода и климат >> Архив погоды >> Австралия >> Marble Bar


ПОГОДА в Marble Bar

  • Прогноз погоды в Marble Bar
  • Монитор погоды в Marble Bar
  • Климат города

АРХИВ ПОГОДЫ в Marble Bar

Время (UTC), дата Ветер
(напр.,м/с)
 
Видим.   Явления Облачность Т
(С)
Тd
(С)
f
(%)
Тe
(С)
Тes
(С)
Комфортность P
(гПа)
Po
(гПа)
Тmin
(С)
Tmax
(С)
R
(мм)
R24
(мм)
S
(см)
22 10.11 Ю 1 н/о н/о +27.2 +19.5 63 +33 +33 очень
душно
1008.2 987.9
00 11.11 В 2 н/о н/о +31.3 +16.5 41 +34 +34 душно 1008.3 988.0
01 11.11 Ю 1 н/о н/о +32.6 +15.1 35 +35 +35 душно 1007.9 987.6 +26.3
03 11.11 СЗ 5 н/о н/о +37.3 +12.0 22 +37 +37 очень
жарко
1006.6 986.4
04 11.11 З 5 н/о н/о +38.0 +11.1 20 +37 +37 очень
жарко
1005.7 985.5
06 11.11 СЗ 8 н/о н/о +38.9 +9.4 17 +37 +37 очень
жарко
1004.5 984.3
07 11.11 СЗ 7 н/о н/о +38.3 +9.8 18 +37 +37 очень
жарко
1003.9 983.7
09 11.11 СЗ 6 н/о н/о +37.5 +9.2 18 +36 +36 очень
жарко
1004.1 983.9
10 11.11 СЗ 7 н/о н/о +35.7 +9.3 20 +34 +34 очень
жарко
1004.7 984.5
12 11.11 СЗ 5 н/о н/о +33.4 +8.8 22 +32 +32 жарко 1006.1 985.9
13 11.11 СЗ 4 н/о н/о +30.7 +16.7 43 +34 +34 очень
душно
1006.8 986.6 +40.6
15 11.11 С 3 н/о н/о +27.5 +18.2 57 +32 +32 очень
душно
1007.0 986.8
16 11.11 СЗ 3 н/о н/о +27.1 +16.7 53 +31 +31 душно 1006.5 986.3
18 11.11 С 3 н/о н/о +24.3 +18.5 70 +29 +29 душно 1006.8 986.6
19 11.11 С 2 н/о н/о +23.8 +18.4 72 +28 +28 душно 1007.2 986.9
21 11.11 С 1 н/о н/о +22.8 +18.8 78 +29 +29 очень
душно
1008.0 987.7
22 11.11 СЗ 1 н/о н/о +23.6 +19.3 77 +29 +29 душно 1008.7 988.4
00 12.11 Ю 3 н/о н/о +28.9 +16.1 46 +32 +32 душно 1009.1 988.8
01 12.11 ЮВ 3 н/о н/о +31.1 +14.3 36 +33 +33 душно 1008.9 988.6 +22.7
03 12.11 С 2 н/о н/о +35.5 +8.3 19 +34 +34 очень
жарко
1007.8 987.5
04 12.11 ЮЗ 2 н/о н/о +36.2 +7.3 17 +34 +34 очень
жарко
1006.9 986.7
06 12.11 З 2 н/о н/о +38.9 +7.6 15 +37 +37 очень
жарко
1005.0 984.8
07 12.11 СЗ 3 н/о н/о +39.5 +6.0 13 +37 +37 очень
жарко
1004.3 984.1
09 12.11 СЗ 4 н/о н/о +38.8 +7.5 15 +37 +37 очень
жарко
1004.3 984.1
10 12.11 СЗ 6 н/о н/о +36.1 +11.0 22 +35 +35 очень
жарко
1004.9 984.7
12 12.11 СЗ 4 н/о н/о +31.6 +11.4 29 +32 +32 жарко 1007.2 986.9
13 12.11 СЗ 2 н/о н/о +30.3 +9.8 28 +30 +30 жарко 1007.9 987.6 +40.3
15 12.11 СЗ 1 н/о н/о +28.1 +12.8 39 +30 +30 жарко 1008.1 987.8
16 12.11 штиль 0 н/о н/о +27.2 +13.5 43 +29 +29 жарко 1007.7 987.4
18 12.11 С 1 н/о н/о +25.3 +14.1 50 +28 +28 жарко 1007.7 987.4
19 12.11 Ю 1 н/о н/о +24.7 +14.8 54 +27 +27 жарко 1007.6 987.3
21 12.11 ЮВ 2 н/о н/о +24.1 +13.9 53 +26 +26 жарко 1008.6 988.3
22 12.11 ЮВ 2 н/о н/о +26.0 +13.2 45 +28 +28 жарко 1009.3 989.0
00 13.11 В 7 н/о н/о +32.8 +8.3 22 +31 +31 жарко 1010.0 989.7
01 13.11 В 6 н/о н/о +34.4 +8.2 20 +33 +33 жарко 1009.9 989.6 +23.8
03 13.11 В 4 н/о н/о +37.2 +8.1 17 +35 +35 очень
жарко
1008.9 988.6
04 13.11 СВ 4 н/о н/о +37.5 +8.3 17 +36 +36 очень
жарко
1008.2 987.9
06 13.11 С 2 н/о н/о +39.6 +8.1 15 +37 +37 очень
жарко
1006.2 986.0
07 13.11 З 2 н/о н/о +39.8 +8.3 15 +38 +38 очень
жарко
1005.4 985.2
09 13.11 С 2 н/о н/о +39.0 +8.6 16 +37 +37 очень
жарко
1005.2 985.0
10 13.11 СЗ 2 н/о н/о +37.6 +9.2 18 +36 +36 очень
жарко
1005.6 985.4
12 13.11 СЗ 5 н/о н/о +33.2 +12.2 28 +33 +33 жарко 1008.0 987.7
13 13.11 З 3 н/о н/о +31.9 +11.7 29 +32 +32 жарко 1008.5 988.2 +41.2
15 13.11 З 2 н/о н/о +29.4 +11.0 32 +30 +30 жарко 1008.7 988.4
16 13.11 СЗ 1 н/о н/о +28.4 +11.5 35 +29 +29 жарко 1008.5 988.2
18 13.11 З 2 н/о н/о +26.8 +12.8 42 +28 +28 жарко 1008.0 987.7
19 13.11 штиль 0 н/о н/о +26.0 +13.5 46 +28 +28 жарко 1008.1 987.8
21 13.11 Ю 1 н/о н/о +25.0 +13.9 50 +27 +27 жарко 1009.4 989.1
22 13.11 Ю 1 н/о н/о +26.9 +15.0 48 +30 +30 душно 1010.1 989.8
00 14.11 В 6 н/о н/о +34.6 +6.8 18 +33 +33 жарко 1010.9 990.6
01 14.11 В 6 н/о н/о +36.5 +4.7 14 +34 +34 очень
жарко
1011.1 990.8 +24.5
03 14.11 СВ 4 н/о н/о +38.2 +6.0 14 +36 +36 очень
жарко
1010.1 989.8
04 14.11 СВ 5 н/о н/о +39.4 +7.0 14 +37 +37 очень
жарко
1009.5 989.2
06 14.11 В 3 н/о н/о +40.9 +5.9 12 +38 +38 очень
жарко
1007.9 987.6
07 14.11 С 4 н/о н/о +42.4 +5.8 11 +40 +40 очень
жарко
1007.2 986.9
09 14.11 СВ 2 н/о н/о +41.3 +4.9 11 +38 +38 очень
жарко
1006.8 986.6
10 14.11 СВ 2 н/о н/о +39.5 +4.8 12 +37 +37 очень
жарко
1007.0 986.8
12 14.11 СЗ 4 н/о н/о +35.3 +12.3 25 +35 +35 очень
жарко
1008.9 988.6
13 14.11 СЗ 3 н/о н/о +34.6 +11.7 25 +34 +34 очень
жарко
1009.4 989.1 +42.8
15 14.11 З 3 н/о н/о +33.3 +13.4 30 +34 +34 очень
жарко
1010.2 989.9
16 14.11 ЮЗ 4 н/о н/о +33.3 +10.6 25 +33 +33 жарко 1010.3 990.0
18 14.11 Ю 4 н/о н/о +32.2 +9.7 25 +32 +32 жарко 1009.6 989.3
19 14.11 Ю 5 н/о н/о +32.6 +9.4 24 +32 +32 жарко 1009.8 989.5
21 14.11 ЮВ 3 н/о н/о +31.3 +9.5 26 +31 +31 жарко 1010.5 990.2
22 14.11 ЮВ 3 н/о н/о +31.7 +9.3 25 +31 +31 жарко 1011.3 991.0
00 15.11 В 6 н/о н/о +36.6 +1.4 11 +33 +33 жарко 1012.4 992.0
01 15.11 В 7 н/о н/о +38.6 +0.1 9 +35 +35 очень
жарко
1012.6 992.2 +30.8
03 15.11 СВ 5 н/о н/о +40.0 -0.5 8 +36 +36 очень
жарко
1011.4 991.1
04 15.11 СВ 3 н/о н/о +41.9 +0.9 8 +38 +38 очень
жарко
1010.4 990.1
06 15.11 В 1 н/о н/о +42.5 +1.3 8 +39 +39 очень
жарко
1008.7 988.4
07 15.11 В 2 н/о н/о +42.1 +1.1 8 +38 +38 очень
жарко
1008.1 987.8
09 15.11 В 2 н/о н/о +41.6 +0.7 8 +38 +38 очень
жарко
1007.7 987.4
10 15.11 С 5 н/о н/о +39.7 +0.9 9 +36 +36 очень
жарко
1008.3 988.0
12 15.11 З 5 н/о н/о +37.2 +1.8 11 +34 +34 очень
жарко
1011.2 990.9
13 15.11 ЮЗ 6 н/о н/о +36.5 +6.6 16 +34 +34 очень
жарко
1011.8 991.5 +43.9
15 15.11 ЮЗ 4 н/о н/о +35.2 +6.5 17 +33 +33 жарко 1011.2 990.9
16 15.11 ЮЗ 4 н/о н/о +34.6 +6.8 18 +33 +33 жарко 1010.4 990.1
18 15.11 ЮЗ 3 н/о н/о +34.0 +6.3 18 +32 +32 жарко 1009.2 988.9
19 15.11 Ю 6 н/о н/о +34.2 +5.7 17 +32 +32 жарко 1009.6 989.3
21 15.11 Ю 3 н/о н/о +33.1 +7.1 20 +31 +31 жарко 1011.0 990.7
22 15.11 Ю 3 н/о н/о +33.1 +7.1 20 +31 +31 жарко 1011.6 991.3
00 16.11 ЮВ 7 н/о н/о +37.5 +2.1 11 +34 +34 очень
жарко
1011.9 991.6
01 16.11 ЮВ 7 н/о н/о +38.6 +1.6 10 +35 +35 очень
жарко
1011.9 991.6 +32.3
03 16.11 В 6 н/о н/о +39.9 +1.1 9 +36 +36 очень
жарко
1011.1 990.8
04 16.11 ЮВ 5 н/о н/о +40.6 +1.6 9 +37 +37 очень
жарко
1010.3 990.0
06 16.11 Ю 6 н/о н/о +39.9 +1.1 9 +36 +36 очень
жарко
1009.1 988.8
07 16.11 Ю 6 н/о н/о +39.2 +2.0 10 +36 +36 очень
жарко
1008.7 988.4
09 16.11 Ю 8 н/о н/о +37.1 +5.2 14 +34 +34 очень
жарко
1009.2 988.9
10 16.11 Ю 8 н/о н/о +36.3 +6.5 16 +34 +34 очень
жарко
1009.8 989.5
12 16.11 Ю 10 н/о н/о +34.4 +8.9 21 +33 +33 жарко 1011.0 990.7
13 16.11 Ю 7 н/о н/о +33.6 +9.0 22 +32 +32 жарко 1011.3 991.0 +41.1
15 16.11 Ю 3 н/о н/о +32.3 +9.2 24 +31 +31 жарко 1010.9 990.6
16 16.11 Ю 3 н/о н/о +31.9 +8.8 24 +31 +31 жарко 1010.7 990.4
18 16.11 ЮВ 3 н/о н/о +29.2 +9.9 30 +29 +29 жарко 1009.8 989.5
19 16.11 Ю 2 н/о н/о +27.5 +9.8 33 +28 +28 жарко 1009.9 989.6
21 16.11 Ю 1 н/о н/о +26.2 +10.0 36 +27 +27 жарко 1010.3 990.0
22 16.11 Ю 1 н/о н/о +27.4 +11.4 37 +28 +28 жарко 1010.8 990.5
00 17.11 ЮВ 3 н/о н/о +35.3 +8.9 20 +34 +34 очень
жарко
1011.0 990.7
01 17.11 В 4 н/о н/о +37.5 +7.4 16 +35 +35 очень
жарко
1010.6 990.3 +26.0
03 17.11 ЮЗ 3 н/о н/о +40.1 +5.3 12 +37 +37 очень
жарко
1008.9 988.6
04 17.11 Ю 2 н/о н/о +40.5 +4.3 11 +37 +37 очень
жарко
1007.8 987.5
06 17.11 В 2 н/о н/о +40.5 +3.0 10 +37 +37 очень
жарко
1005.7 985.5
07 17.11 СВ 2 н/о н/о +42.2 +2.8 9 +39 +39 очень
жарко
1005.1 984.9
09 17.11 В 3 н/о н/о +40.3 +2.8 10 +37 +37 очень
жарко
1004.8 984.6
10 17.11 ЮВ 3 н/о н/о +39.6 +3.7 11 +36 +36 очень
жарко
1005.2 985.0
12 17.11 С 5 н/о н/о +35.9 +9.4 20 +35 +35 очень
жарко
1006.8 986.6
13 17.11 С 3 н/о н/о +34.1 +10.0 23 +33 +33 жарко 1007.3 987.0 +43.5
15 17.11 С 1 н/о н/о +31.4 +10.7 28 +31 +31 жарко 1007.0 986.8
16 17.11 С 3 н/о н/о +30.7 +10.6 29 +31 +31 жарко 1006.7 986.5
18 17.11 штиль 0 н/о н/о +27.3 +10.9 36 +28 +28 жарко 1005.9 985.7
19 17.11 ЮВ 1 н/о н/о +25.9 +12.0 42 +27 +27 жарко 1005.9 985.7

 

Местоположение метеостанции Marble Bar (Западная Австралия, Австралия): широта -21.18 долгота 119.75 высота над уровнем моря 183 м.

В архиве по умолчанию представлена погода в Marble Bar за последнюю неделю. Архивные данные за месяц целиком и за предыдущие месяцы, начиная с января 2011 года, Вы можете получить, выбрав интересующий диапазон дат из раскрывающегося списка и нажав кнопку "Ввод!".


*Определитесь, кто Вы:
робот инопланетянин человек

Внимание! Время в таблицах - всемирное. Для получения местного времени необходимо прибавить поправку, которая в Marble Bar равна 8 ч.

Смотрите также архив погоды в соседних городах и на ближайших метеорологических станциях:

Погода в Port Hedland Apardoo (Западная Австралия, Австралия) (148 км)
Погода в Mandora (Западная Австралия, Австралия) (198 км)
Погода в Newman Aero (Западная Австралия, Австралия) (248 км)
Погода в Telfer Aero (Западная Австралия, Австралия) (261 км)
Погода в Roebourne Aero (Западная Австралия, Австралия) (274 км)
Погода в Paraburdoo Aero (Западная Австралия, Австралия) (302 км)
Погода в Karratha Aero (Западная Австралия, Австралия) (314 км)
Погода в Mardie (Западная Австралия, Австралия) (392 км)
Погода в Rowley Shoals (Западная Австралия, Австралия) (415 км)
Погода в Varanus Island (Западная Австралия, Австралия) (438 км)

Пояснения к столбцам:

Ветер - указаны скорость ветра в м/с - средняя за 10 мин, порывы в срок и между сроками (в фигурных скобках) и направление, откуда дует ветер: С - северный, СВ - северо-восточный, В - восточный, ЮВ - юго-восточный, Ю - южный, ЮЗ - юго-западный, З - западный, СЗ - северо-западный.
Видимость - горизонтальная дальность видимости в метрах или километрах. При видимости от 1 до 10 км при отсутствии осадков обычно наблюдается дымка, при ухудшении видимости до 1 км и менее - туман. В сухую погоду видимость может ухудшаться дымом, пылью или мглою.
Явления - указаны атмосферные явления, наблюдавшиеся в срок или в последний час перед сроком; фигурными скобками обозначены явления, наблюдавшиеся между сроками (за 1-3 часа до срока); квадратными скобками обозначены град или гололедные отложения с указанием их диаметра в мм.
Облачность - указаны через наклонную черту общая и нижняя облачность в баллах и высота нижней границы облаков в метрах; квадратными скобками обозначены формы облаков: Ci - перистые, Cs - перисто-слоистые, Cc - перисто-кучевые, Ac - высококучевые, As - высокослоистые, Sc - слоисто-кучевые, Ns - слоисто-дождевые, Cu - кучевые, Cb - кучево-дождевые. Подробнее классификацию облаков см. в Атласе облаков (PDF).
T - Температура воздуха - температура, измеренная на высоте 2 м над землей.
Td - Температура точки росы - температура, при понижении до которой содержащийся в воздухе водяной пар достигнет насыщения.
f - Относительная влажность воздуха - влажноcть воздуха, измеренная на высоте 2 м над землей.
Te - Эффективная температура - температура, которую ощущает одетый по сезону человек в тени. Характеристика душности погоды. При расчете учитывается влияние влажности воздуха и скорости ветра на теплоощущения человека.
Tes - Эффективная температура на солнце - температура, которую ощущает человек, с поправкой на солнечный нагрев. Характеристика знойности погоды. Зависит от высоты солнца над горизонтом, облачности и скорости ветра. Ночью, в пасмурную погоду, а также при ветре 12 м/с и более поправка равна нулю.
P - Атмосферное давление - приведенное к уровню моря атмосферное давление.
Po - Атмосферное давление - измеренное на уровне метеостанции атмосферное давление.
Tmin - Минимальная температура - минимум температуры воздуха на высоте 2 м над землей.
Tmax - Максимальная температура - максимум температуры воздуха на высоте 2 м над землей.
R - Количество осадков - Количество выпавших осадков за период времени, мм. При наведении курсора мыши на число - период времени, за который выпало указанное количество осадков.
R24 - Количество осадков - Количество выпавших осадков за 24 часа, мм.
S - Снежный покров - Высота снежного покрова, см. При наведении курсора мыши на число - состояние снежного покрова и степень покрытия местности в баллах.